Location: LDNL
(36.4545°S, 141.6685°E)
Time: 13:36:31
(UTC+11:00)

Courier 1B Rocket - Pass Details

Date: 31 January 2023
Orbit: 920 x 1202 km, 28.2° (Epoch: 25 March)

Event Time Altitude Azimuth Distance (km) Brightness Sun altitude
Rises 07:23:26 0° 304° (WNW) 4,093 7.6 5.8°
Reaches altitude 10° 07:26:32 10° 312° (NW) 3,134 7.1 6.4°
Maximum altitude 07:33:31 36° 15° (NNE) 1,795 6.5 7.8°
Drops below altitude 10° 07:40:21 10° 78° (ENE) 3,063 8.9 9.1°
Sets 07:43:21 0° 86° (E) 3,989 9.8 9.7°
